Regional Weather Roundup
Issued by NWS

Home | Current Version | Previous Version | Graphics & Text | Print | Product List | Glossary On
Versions: 1 2 3 4 5 6 7 8 9 10 11 12 13 14 15 16 17 18 19 20 21 22 23 24 25 26 27 28 29 30 31 32 33 34 35 36 37 38 39 40 41 42 43 44 45 46 47 48 49 50
000
ASUS43 KDMX 291407
RWRIA

WEATHER ROUNDUP FOR IOWA
NATIONAL WEATHER SERVICE DES MOINES IA
900 AM CDT FRI AUG 29 2014

NOTE: "FAIR" INDICATES FEW OR NO CLOUDS BELOW 12,000 FEET WITH NO
SIGNIFICANT WEATHER AND/OR OBSTRUCTIONS TO VISIBILITY.

* - THESE STATIONS ARE NOT NWS STATIONS...THUS NOT UNDER NWS
QUALITY CONTROL.  THEY ALSO DO NOT REPORT WEATHER SUCH
AS PRECIPITATION OR FOG.

IAZ001>003-012>014-020>022-031>034-043>046-291500-
   NORTHWEST IOWA

CITY           SKY/WX    TMP DP  RH WIND       PRES   REMARKS
CARROLL *      PTSUNNY   70  68  94 S9G17     29.83S
DENISON *      PTSUNNY   70  68  94 CALM      29.81S
LE MARS *      DRIZZLE   70  70 100 VRB6      29.81S
ORANGE CITY *  LGT RAIN  72  66  83 S7        29.81S
SHELDON *      CLOUDY    70  68  94 S12       29.80S
SIOUX CITY     LGT RAIN  71  70  96 S7        29.80S FOG
SPENCER        LGT RAIN  70  66  87 S10       29.81F
STORM LAKE *   CLOUDY    68  68 100 S10       29.84R
$$

IAZ055>058-069>071-079>083-090>094-291500-
   SOUTHWEST IOWA

CITY           SKY/WX    TMP DP  RH WIND       PRES   REMARKS
ATLANTIC *     SUNNY     72  68  88 S7        29.82S
AUDUBON *      SUNNY     73  70  88 S7        29.84S
CLARINDA *     SUNNY     72  68  88 S5        29.85S
COUNCIL BLFS * MOSUNNY   70  70 100 SE6       29.81R FOG
CRESTON *      SUNNY     73  70  88 S10       29.86S
HARLAN  *      SUNNY     70  70 100 S7        29.86S
RED OAK *      CLOUDY    72  68  88 S6        29.83S
SHENANDOAH *   SUNNY     72  68  88 S8        29.83S
$$

IAZ047>049-059>061-072>074-084-291500-
   CENTRAL IOWA

CITY           SKY/WX    TMP DP  RH WIND       PRES   REMARKS
AMES           CLOUDY    70  69  97 SE14      29.84F FOG
ANKENY *       SUNNY     73  70  88 SE10      29.84S
CHARITON *     SUNNY     73  70  88 S10       29.87S
DES MOINES     MOSUNNY   74  70  87 SE12      29.84S
GRINNELL*      MOSUNNY   72  70  94 SE10      29.88F FOG
KNOXVILLE *    SUNNY     73  70  88 SE8       29.85F
MARSHALLTOWN   PTSUNNY   71  69  93 SE13      29.86F FOG
PELLA *        SUNNY     75  70  83 SE7       29.88S
PERRY *        CLOUDY    70  70 100 S10       29.84F FOG
$$

IAZ004>006-015-016-023>025-035-036-291500-
   NORTH CENTRAL IOWA

CITY           SKY/WX    TMP DP  RH WIND       PRES   REMARKS
ALGONA *       SUNNY     70  68  94 S13       29.82S
CLARION *      SUNNY     73  68  83 S16       29.82F
ESTHERVILLE    CLOUDY    69  66  90 S10       29.81S
FORT DODGE *   PTSUNNY   73  68  83 S10       29.83F
MASON CITY     PTSUNNY   73  68  84 S13       29.84S
FOREST CITY *    N/A     72  70  94 S7        29.82F
IOWA FALLS *   PTSUNNY   70  68  94 S14       29.86F
$$

IAZ007>011-017>019-026>030-037>042-050>054-066-291500-
   NORTHEAST IOWA

CITY           SKY/WX    TMP DP  RH WIND       PRES   REMARKS
CEDAR RAPIDS   PTSUNNY   73  70  90 S12       29.89F FOG
CHARLES CITY * SUNNY     72  68  88 S13       29.85F
CLINTON *      SUNNY     72  68  88 SE6       29.95S
DECORAH *      PTSUNNY   70  68  94 S9        29.86F
DUBUQUE        CLOUDY    70  68  93 S12       29.92F FOG
MONTICELLO *   PTSUNNY   72  70  94 S7        29.90F
OELWEIN *      CLOUDY    72  70  94 S13       29.89S FOG
WATERLOO       PTSUNNY   72  69  90 S10       29.85F
$$

IAZ064-065-067-068-078-291500-
   EAST CENTRAL IOWA

CITY           SKY/WX    TMP DP  RH WIND       PRES   REMARKS
DAVENPORT      SUNNY     74  69  85 S12       29.92F
IOWA CITY      MOSUNNY   74  71  91 S7        29.91S
MT. PLEASANT * SUNNY     77  70  78 S8        29.91S
MUSCATINE *    MOSUNNY   75  72  88 S7        29.91S
QUAD CITIES    SUNNY     75  69  81 S7        29.91F
$$

IAZ062-063-075>077-085>089-095>099-291500-
   SOUTHEAST IOWA

CITY           SKY/WX    TMP DP  RH WIND       PRES   REMARKS
BURLINGTON     SUNNY     75  71  87 S9        29.91F
FAIRFIELD *    MOSUNNY   75  68  78 S12       29.90F
FORT MADISON * SUNNY     75  72  88 S13       29.92F
KEOKUK *       MOSUNNY   77  72  83 S12       29.91F
OSKALOOSA *      N/A     73  70  88 S9        29.89F
CENTERVILLE *  SUNNY     73  72  94 S9        29.90F
OTTUMWA        SUNNY     74  69  85 S7        29.88S
WASHINGTON *   MOSUNNY   73  72  94 S10G16    29.90S
$$

ABBREVIATIONS USED IN REMARKS
   TC - TEMPERATURES IN CELSIUS
  WCI - WIND CHILL INDEX
   HX - HEAT INDEX
  VSB - VISIBILITY
$$




USA.gov is the U.S. government's official web portal to all federal, state and local government web resources and services.